Погода в Ялтуровске

Погода в Ялтуровске : погода сейчас, прогноз погоды и архив. Всё, что Вы хотите узнать о погоде в Ялтуровске!

Хотите узнать прогноз погоды в Ялтуровске? Тогда Вам сюда: Погода в Ялтуровске

Поиск расширенной информации на нашем сайте:

Другие новости

Новости СМИ2

Главная страница сайта

Новости сайта

03.07.2017

Напоминаем, что на нашем специализированном сайте Метеоцентр.Азия вы можете получить высокодетализированные автоматические прогнозы погоды по пунктам России, СНГ и мира в авиационном формате (включающие направление и скорость ветра, видимость, явления погоды, количество и форму облачности, нижнюю и верхнюю границу облачности).

Рекомендуем: Вышивка машинная на заказ.

Погода в Ялтуровске - сегодня

Время (UTC), дата Ветер
(°,м/с) 
Видим.   Явления Облачность Т
(°С)
Тd
(°С)
f(%) Тe
(°С)
Pmin
(гПа)
dP
(гПа)
Po
(мм)
O2
(г/м3)
Тmin Tmax R s Состояние
почвы
03 20.02.18 190 (Ю) 20000 м    10/0 средняя, верхняя 
[Ac trans|Ci sp]
-11.7 -15.3 75 -17  1027.2  -1.4  764  323  -13      11  равномерный
сухой снег
100% 
06 20.02.18 180 (Ю) 20000 м    10/0 средняя 
[Ac As]
-9.5 -14 70 -14  1026  -1.1  764  320           
09 20.02.18 180 (Ю) 20000 м    10/0 средняя 
[Ac As]
-6.9 -13.5 59 -10  1024.7  -1.2  763  316           
12 20.02.18 170 (Ю) 20000 м    10/0 средняя 
[As op]
-7.2 -14.1 58 -11  1022.8  -1.9  761  316           
18 20.02.18 160 (Ю) 20000 м    8/0 верхняя 
[Ci sp]
-10.1 -14.9 68 -14  1019  -1.8  758  319           
21 20.02.18 160 (Ю) 20000 м    10/0 верхняя 
[Ci sp]
-10.5 -15.2 68 -15  1017.5  -1.6  757  319           
00 21.02.18 180 (Ю) 20000 м    10/0 верхняя 
[Ci sp]
-10 -14 73 -13  1015.4  -2  756  317           
03 21.02.18 160 (Ю) 20000 м    10/0 средняя 
[As op]
-10 -14.1 72 -12  1013.1  -2.3  754  317  -11      11  равномерный
сухой снег
100% 
09 21.02.18 180 (Ю) 20000 м    8/0 средняя, верхняя 
[Ac trans|Cc]
-7.1 -13.1 62 -9  1009.4  -2  751  312           
12 21.02.18 270 (З) 20000 м    8/4 1000 м средняя, верхняя 
[Sc|Ac trans|Cc]
-7.7 -13.1 65 -10  1009.3  -0.1  751  313           
15 21.02.18 270 (З) 4000 м  слаб. снег  10/0 средняя 
[As op]
-8.9 -10.8 86 -12  1010.1  0.8  752  314    -6.8  0.0     
18 21.02.18 270 (З) 20000 м  {снег}  ясно 
-10.6 -12.5 86 -14  1011.6  1.4  753  317           
21 21.02.18 260 (З) 20000 м    ясно 
-12 -13.9 86 -15  1013.4  1.8  754  319           
00 22.02.18 180 (Ю) 20000 м    4/0 верхняя 
[Ci fib]
-16.8 -19 83 -19  1014.7  1.1  755  326           
03 22.02.18 170 (Ю) 20000 м    10/3 600 м средняя 
[Sc|Ac As]
-15.8 -18 83 -16  1015.5  0.8  755  325  -17.5    0.4  11  равномерный
сухой снег
100% 
06 22.02.18 180 (Ю) 20000 м    3/0 верхняя 
[Ci fib]
-14 -16.5 81 -19  1015.7  0.3  756  322           
09 22.02.18 180 (Ю) 20000 м    6/0 верхняя 
[Ci sp]
-9.5 -13.1 75 -12  1015  -0.6  755  316           
12 22.02.18 200 (Ю) 4000 м  слаб. снег  10/0 средняя 
[As op]
-8.5 -11 82 -10  1015  755  315           
15 22.02.18 200 (Ю) 4000 м  слаб. снег  10/0 средняя 
[As op]
-11.2 -12.9 87 -13  1015.7  0.7  756  319    -8.3  0.3     
18 22.02.18 260 (З) 20000 м  {снег}  8/0 средняя, верхняя 
[Ac trans|Ci sp]
-11.8 -14.4 81 -15  1016.7  757  320           
21 22.02.18 190 (Ю) 20000 м    3/0 верхняя 
[Ci sp]
-18.3 -20.4 84 -21  1017.8  0.8  757  329           
00 23.02.18 180 (Ю) 20000 м  [диам. изморози 3 мм]  3/0 верхняя 
[Ci sp]
-21.2 -23.8 79 -24  1019  1.1  758  333           
03 23.02.18 180 (Ю) 20000 м  [диам. изморози 4 мм]  ясно 
-22.3 -25.1 78 -25  1019.7  0.7  758  335  -22.4    0.0  12  равномерный
сухой снег
100% 
06 23.02.18 180 (Ю) 20000 м  [диам. изморози 4 мм]  ясно 
-17.4 -20.2 79 -20  1020.1  0.5  759  328  -22.7         
09 23.02.18 190 (Ю) 20000 м  [диам. изморози 0 мм]  ясно 
-12.7 -16.8 71 -16  1020.1  0.2  759  322           
Время (UTC), дата Ветер
(°,м/с) 
Видим.   Явления Облачность Т
(°С)
Тd
(°С)
f(%) Тe
(°С)
Pmin
(гПа)
dP
(гПа)
Po
(мм)
O2
(г/м3)
Тmin Tmax R s Состояние
почвы

Для получения пояснительной информации подведите курсор к названию столбца.

ПОГОДА в Ялтуровске - архив

Всё, что Вы хотите узнать о погоде в Ялтуровске - удобно и подробно!

Выберите нужную дату (начиная с 1 января 2015* года) и нажмите кнопку "Найти".
Будут отображены архивные сводки погоды по пункту Ялтуровск, начиная с указанной даты.


Отображать данные в формате CSV (для использования в таблицах Excel)


Внимание! Наш архив погоды предназначен исключительно для личного некоммерческого использования в познавательных целях. Если Вам необходимы официальные справки о состоянии погоды (для производственных, юридических, коммерческих и т.п. целей), обращайтесь в органы Росгидромета.

*Примечание: данная дата относится к архиву по метеостанциям СССР (Россия, СНГ, Балтия).
Архив по метеостанциям Зарубежной Европы и Азии (кроме Китая) хранится 10 дней, по другим регионам земного шара (Китай, Африка, Америка, Австралия, Океания) - 1 день.

Ялтуровск - район местоположения метеостанции


Название, широта, долгота, высота метеостанции:
Ялтуровск 56.7°ш. 66.3°д. 61 м над ур. моря [Российская Федерация]

Дополнительная информация

В oтличие oт бoльшинства пoгoдных сайтoв мы публикуем пoдрoбную метеoинфoрмацию в детальнoм прoфессиoнальнoм фoрмате.

Характеристики температуры и влажнoсти вoздуха измеряются на высoте 2 м в тени вдали oт зданий и деревьев.
Скoрoсть ветра измеряется на высoте 10 м (на урoвне рoста челoвека скoрoсть ветра ниже в 1.5-2 раза). Если метеoстанция нахoдится в гoрoде или в лесу, тo скoрoсть ветра занижена на 2-4 м/с пo сравнению с oткрытым местoм. Скoрoсть ветра над акватoриями крупных рек и oзёр, а также на вершинах хoлмoв на 2-5 м/с выше, чем в oбычных услoвиях.
Атмoсфернoе давление в разных тoчках местнoсти мoжет значительнo oтличаться oт давления на метеoстанции, в зависимoсти oт услoвий рельефа (при пoдъёме на 10 м давление пoнижается примернo на 1 мм рт.ст.).